Temperature
14 15 15 15 13 11 12 12 13 13 13 13 14 14 13 13 13 14 13 13 13 13 13 13 13 13 13 13 13 14 14 14 14 14 14 14 14 14 14 14 14 14 14 14 14 14 14 14 15
14 15 15 15 11 11 12 12 12 13 13 13 13 13 12 12 12 12 13 13 13 13 13 13 13 13 13 13 13 13 14 14 14 14 13 13 13 13 13 14 13 13 14 14 14 14 14 14 14
14 14 15 10 11 11 13 12 12 12 13 13 12 12 12 11 12 12 12 12 12 12 12 12 12 13 13 13 13 13 13 13 13 13 13 13 13 13 13 13 13 13 13 14 14 14 14 14 14
14 14 13 10 11 11 12 12 11 12 13 12 12 11 11 11 12 12 12 12 12 12 12 12 12 12 12 13 13 13 13 13 13 13 13 13 13 13 13 13 13 13 13 13 13 13 13 14 14
14 13 10 10 11 11 10 11 12 12 12 12 12 10 10 11 11 12 12 12 12 12 11 12 12 12 12 12 12 12 13 13 13 13 12 12 12 13 13 13 13 13 13 13 13 13 13 13 13
13 10 9 10 11 10 10 12 12 11 11 11 11 10 10 11 11 12 11 11 11 11 11 11 11 11 12 12 12 12 12 12 12 12 12 12 12 12 12 12 12 12 12 12 13 13 13 13 13
11 8 9 10 10 11 11 12 11 11 10 10 11 10 10 11 11 11 11 11 11 11 11 11 11 11 11 11 11 11 12 12 12 12 12 12 12 12 12 12 12 12 12 12 12 12 13 13 13
12 8 9 9 10 11 11 12 11 11 10 11 11 10 10 11 11 10 10 10 10 10 10 10 11 11 11 11 11 11 11 11 11 12 12 12 12 12 12 12 12 12 12 12 12 12 12 12 12
12 8 8 9 10 11 11 10 11 11 10 10 10 10 10 10 10 10 10 10 10 10 10 10 10 10 10 10 10 10 10 11 11 11 11 11 11 11 11 11 12 12 12 12 12 12 12 12 12
10 8 8 9 10 10 10 10 10 10 9 9 9 10 10 10 10 10 10 10 10 10 9 9 10 10 10 10 10 10 10 10 10 10 11 11 11 11 11 11 11 11 12 12 12 12 12 12 12
8 7 8 9 10 10 9 9 9 9 8 8 9 9 9 9 9 9 9 9 9 9 9 9 9 9 9 9 9 9 10 9 10 10 10 10 10 11 11 11 11 11 11 11 11 11 11 11 11
7 7 8 9 9 9 9 8 8 7 8 9 9 9 9 9 9 9 9 9 9 9 9 9 9 9 9 9 9 9 9 9 9 9 9 10 10 10 10 10 11 11 11 11 11 11 11 11 11
7 7 7 8 9 8 8 7 7 7 8 9 9 9 8 8 8 8 8 8 8 8 8 8 8 8 8 8 8 8 8 9 9 9 9 9 9 9 9 10 10 10 10 10 10 10 10 10 10
7 7 7 8 8 8 7 6 6 6 7 8 8 8 8 8 8 8 8 8 7 7 7 7 7 7 7 8 8 8 8 8 8 8 8 8 8 8 9 9 9 9 10 10 10 10 10 10 10
7 6 6 6 7 7 7 6 5 6 6 6 6 7 7 7 7 7 7 7 7 7 7 7 7 7 7 7 7 7 7 7 7 7 7 8 8 8 8 8 8 9 9 9 9 9 9 9 9
7 6 6 6 6 6 7 6 5 5 5 4 5 5 5 6 6 6 6 6 6 6 6 6 6 6 6 6 6 6 6 7 7 7 7 7 7 7 7 8 8 8 8 8 9 9 9 9 9
5 5 6 6 5 5 5 5 4 4 4 3 3 4 4 5 5 5 6 6 6 6 6 6 6 6 6 6 6 6 6 6 6 6 6 6 6 7 7 7 7 7 8 8 8 8 8 8 8
5 5 5 5 4 4 4 3 3 3 3 2 3 3 3 3 4 4 5 5 5 5 5 5 5 5 5 5 5 5 5 5 5 5 6 6 6 6 6 6 6 7 7 7 7 7 7 7 7
5 5 5 4 4 4 3 3 2 2 2 1 1 2 2 2 3 3 4 4 4 4 4 4 5 5 5 5 5 5 5 5 5 5 5 5 5 5 5 5 6 6 6 6 6 6 6 7 7
5 4 4 4 4 3 2 2 2 1 1 1 1 1 1 1 2 2 3 3 3 4 4 4 4 4 4 4 4 4 4 4 4 4 4 4 4 5 5 5 5 5 5 5 6 6 6 6 6
4 4 4 3 3 3 3 3 2 1 1 1 1 1 1 1 1 1 2 2 2 3 3 3 3 3 3 3 3 3 3 3 3 3 3 4 4 4 4 4 4 4 5 5 5 5 5 5 5
4 3 3 3 2 2 2 3 2 1 -0 -0 -0 -0 -0 0 0 1 1 1 1 2 2 2 2 2 2 3 2 2 2 3 3 3 3 3 3 3 3 3 4 4 4 4 4 4 4 4 4
3 3 3 2 1 1 1 1 2 -0 0 -0 -1 -1 -1 -1 -0 -0 0 0 1 1 1 1 1 1 2 2 2 2 2 2 2 2 2 2 2 2 3 3 3 3 3 3 3 3 3 3 3
2 2 2 1 1 1 1 1 2 -0 -0 -1 -1 -1 -1 -1 -1 -1 -0 -0 0 0 1 1 1 1 1 1 1 1 1 1 1 1 2 2 2 2 2 2 2 2 2 3 3 3 3 3 3
2 2 2 2 1 1 -0 0 0 -1 -2 -2 -2 -2 -2 -2 -2 -2 -1 -1 -0 -0 -0 -0 0 0 0 0 0 0 0 0 1 1 1 1 1 1 2 2 2 2 2 2 2 2 2 2 2
1 2 2 2 1 1 -1 -1 -1 -2 -3 -3 -3 -3 -2 -2 -2 -2 -2 -2 -1 -1 -1 -1 -1 -1 -0 -0 -0 -0 -0 -0 -0 -0 0 1 1 1 1 1 1 1 1 1 1 1 1 1 1
1 0 1 -0 -1 -1 -1 -2 -2 -2 -3 -4 -4 -3 -3 -3 -3 -3 -3 -2 -2 -2 -2 -2 -1 -1 -1 -1 -1 -1 -1 -1 -1 -1 -1 -0 -0 0 0 0 0 1 1 1 1 1 1 1 1
-0 -1 -1 -0 0 0 -0 -2 -1 -2 -3 -3 -4 -4 -3 -3 -3 -3 -3 -3 -3 -3 -2 -2 -2 -2 -2 -2 -2 -2 -1 -1 -1 -1 -1 -1 -1 -1 -0 -0 -0 0 0 0 0 -0 -0 -0 0
-1 -2 -2 -2 -1 -0 -0 -0 -2 -2 -3 -4 -4 -4 -4 -3 -3 -3 -3 -3 -3 -3 -3 -3 -3 -3 -2 -2 -2 -2 -2 -2 -2 -2 -2 -2 -1 -1 -1 -1 -1 -1 -1 -1 -1 -1 -1 -1 -1
-2 -2 -3 -1 -2 -3 -3 -1 -3 -4 -4 -5 -4 -4 -4 -4 -4 -4 -4 -4 -4 -4 -4 -3 -3 -3 -3 -3 -3 -3 -3 -3 -3 -3 -2 -2 -2 -2 -2 -2 -2 -2 -2 -1 -1 -1 -1 -1 -1
Wind_Speed
6 4 3 4 5 3 3 4 2 2 2 1 2 3 5 5 4 2 1 1 3 1 1 2 5 8 9 10 11 11 11 10 10 11 11 11 13 13 14 14 14 14 15 16 16 16 17 17 17
2 2 4 5 4 3 5 4 4 4 3 3 3 3 3 1 1 1 0 1 2 3 2 3 7 9 9 10 11 11 11 11 10 10 11 11 12 13 13 13 13 14 14 15 16 16 16 16 16
1 3 4 4 4 6 5 4 5 1 1 2 3 2 2 1 1 1 1 1 3 4 4 4 8 9 9 10 10 10 10 10 11 11 11 11 12 12 13 13 13 13 13 14 15 15 16 15 15
3 4 4 3 5 5 4 2 3 3 1 2 4 2 0 2 1 1 2 3 5 5 5 6 8 9 9 10 10 10 10 10 10 11 11 12 12 12 12 13 12 12 12 13 14 14 15 15 14
4 4 3 1 4 3 3 2 3 3 2 1 4 3 0 3 2 3 4 4 6 5 6 6 9 9 9 10 11 10 10 11 11 11 11 12 12 12 12 11 11 12 12 12 13 13 14 14 14
4 4 3 5 5 3 3 2 3 2 1 1 4 3 1 2 3 4 5 5 6 6 6 7 8 9 10 10 10 10 10 10 11 11 11 12 12 12 11 11 11 11 11 11 12 12 13 13 13
5 4 5 5 3 3 3 3 4 3 2 2 3 4 1 0 2 4 5 6 6 7 7 7 7 8 9 10 11 10 10 10 10 11 11 11 11 12 11 10 10 11 11 11 11 12 13 13 13
4 4 3 4 5 4 2 3 2 4 3 1 3 5 3 2 5 6 6 6 6 7 7 7 8 8 9 9 10 10 11 12 12 12 12 12 11 11 11 10 10 10 10 11 11 11 12 13 12
4 3 4 5 6 3 2 2 1 2 4 2 1 1 0 6 7 7 6 5 4 5 5 6 7 8 8 8 9 10 11 12 12 12 12 12 11 11 10 10 10 10 10 10 10 11 11 12 11
4 4 6 3 3 2 1 2 2 2 2 0 1 2 4 7 8 8 6 5 4 3 3 5 6 7 7 7 8 9 10 10 11 11 11 11 10 10 10 11 11 10 10 10 10 10 10 10 10
3 5 3 2 1 1 1 0 1 3 1 3 4 4 6 6 6 6 5 5 4 4 3 3 4 6 6 6 7 7 8 9 9 10 9 9 10 10 10 9 10 10 10 9 9 9 9 9 9
2 1 1 1 1 1 1 1 1 1 3 1 3 6 8 8 7 6 5 4 3 3 3 3 4 5 6 6 6 7 7 7 7 7 8 8 7 7 7 7 8 8 8 8 8 7 8 9 9
2 1 1 1 2 2 2 1 1 1 2 2 6 7 7 7 5 3 3 3 3 3 3 3 4 4 5 6 5 6 6 6 6 6 7 7 6 5 6 6 6 7 7 7 7 6 7 7 7
2 1 1 1 1 1 1 1 0 3 1 3 5 5 5 5 4 3 3 2 2 2 2 2 3 4 5 5 5 5 5 6 6 6 6 6 6 5 5 5 5 6 6 5 6 5 5 5 6
2 1 2 1 1 1 2 2 3 3 2 3 2 3 3 2 2 2 2 3 2 2 2 2 3 4 4 5 5 5 5 5 5 5 5 5 5 5 5 4 4 4 5 6 6 6 5 5 5
2 1 2 2 1 0 3 6 3 1 3 2 1 2 2 1 1 1 1 2 2 2 2 2 3 3 3 4 5 5 5 5 5 5 5 5 5 5 5 4 3 4 5 5 4 4 3 3 3
1 2 3 2 1 1 3 5 3 1 2 1 1 2 2 1 1 1 1 2 2 3 3 3 3 4 3 4 4 5 5 4 4 4 4 4 4 5 5 4 3 4 5 4 3 3 2 2 2
4 3 3 4 1 1 2 4 5 2 1 2 2 1 1 1 2 0 1 2 2 3 3 3 3 3 3 3 4 3 4 3 3 3 3 3 3 4 5 4 4 4 4 3 3 3 3 2 2
4 3 4 3 1 1 4 6 6 3 1 2 2 2 2 3 1 1 2 3 3 3 3 3 3 3 3 2 1 1 1 1 1 2 2 2 2 3 4 3 3 3 3 2 2 2 2 2 1
2 2 3 2 1 1 2 6 5 3 2 3 3 3 3 1 1 2 3 3 3 2 2 2 2 2 2 1 1 1 1 1 1 1 1 1 2 2 3 3 2 2 2 2 2 2 1 1 1
3 5 5 3 2 1 2 5 3 2 1 0 1 1 1 1 1 0 1 1 2 2 1 1 2 2 2 2 2 2 2 2 2 2 1 1 1 1 2 2 2 2 2 1 1 2 2 1 0
5 4 4 3 1 3 1 5 5 3 2 2 2 1 2 1 1 0 1 1 1 1 1 1 1 2 2 3 2 2 1 0 1 1 1 1 0 1 2 2 2 2 2 1 2 2 1 2 1
3 1 3 3 3 1 1 3 7 0 3 4 3 2 2 1 0 1 1 1 0 0 1 1 1 2 2 2 2 1 1 0 1 1 1 1 1 0 1 2 2 2 2 2 2 2 2 1 2
2 3 3 3 3 3 5 5 7 3 4 3 2 2 2 1 1 1 1 1 1 2 2 1 2 1 2 1 1 1 0 1 1 1 1 1 1 1 1 1 2 2 2 2 3 3 3 2 2
3 4 2 2 1 6 3 4 7 4 2 2 2 2 1 1 1 2 2 2 2 2 2 2 1 1 1 1 1 0 0 1 1 2 2 2 2 2 2 2 2 2 3 3 3 3 3 3 3
3 5 5 4 5 4 1 6 5 2 1 1 1 1 2 2 1 2 1 1 1 1 1 1 1 2 2 1 1 1 1 1 1 2 2 2 3 3 3 3 3 3 3 3 3 3 3 3 3
3 2 3 4 1 2 5 5 6 0 1 1 1 1 1 2 2 2 2 2 1 1 1 1 1 2 2 2 2 1 1 1 2 2 2 2 3 2 3 3 3 3 3 3 3 3 4 4 4
2 5 4 4 3 4 5 5 4 4 3 2 1 2 2 2 2 2 2 2 2 2 2 2 1 1 2 2 2 2 2 2 2 2 3 3 3 3 3 3 3 3 3 3 3 3 4 4 5
3 3 3 3 3 4 4 6 4 5 4 4 4 3 2 2 2 2 2 2 2 3 2 2 2 2 2 2 2 2 3 3 2 3 3 3 3 3 3 3 3 3 3 4 4 5 4 5 5
3 4 5 4 4 4 3 7 3 3 2 3 4 3 2 2 2 1 2 2 3 3 3 2 2 3 3 3 2 3 3 3 3 3 4 3 3 3 4 4 4 4 4 4 5 6 6 6 7
Wind_Direction
343 5 65 60 64 64 228 238 214 199 200 180 123 127 142 150 157 183 335 43 68 86 123 120 103 99 96 93 88 84 84 88 92 98 107 109 105 102 99 96 96 97 96 94 92 91 91 88 87
348 31 58 68 115 185 244 229 209 208 179 118 75 83 104 135 36 88 353 335 78 87 88 103 105 103 99 96 93 89 85 84 87 93 99 107 106 103 98 94 94 95 96 94 92 92 92 91 90
44 48 87 94 151 192 215 218 206 190 121 120 101 64 121 161 129 176 284 118 89 79 77 89 105 106 103 98 95 92 88 85 84 85 91 98 103 102 98 95 94 94 95 95 95 94 94 92 92
81 54 61 105 209 217 208 214 179 154 93 90 130 106 85 22 318 221 101 110 101 76 75 84 102 105 105 100 96 94 92 89 86 85 84 90 94 98 99 96 95 96 98 99 97 96 95 93 93
63 87 96 209 232 239 235 234 170 156 174 132 136 139 159 3 30 91 102 105 105 84 74 84 94 97 102 100 96 94 92 89 86 85 84 84 86 88 94 97 97 95 97 99 99 99 97 95 94
70 84 138 218 232 250 251 206 157 158 163 137 138 139 201 28 87 104 104 96 88 85 74 81 95 92 92 95 97 95 92 91 87 84 83 83 83 82 85 94 95 95 95 98 99 100 99 97 96
121 125 180 196 214 243 232 168 163 174 186 211 160 140 213 329 116 112 103 92 81 79 70 64 79 88 88 88 90 89 89 90 88 85 82 79 80 82 80 84 94 94 95 97 99 101 99 97 96
130 126 168 192 196 231 213 158 159 164 188 112 136 154 204 189 130 110 97 89 82 71 65 62 65 76 81 85 88 85 82 80 80 79 77 74 72 76 77 74 84 92 95 93 95 98 100 96 92
93 111 200 202 192 215 176 146 60 66 110 83 63 116 82 127 125 114 103 93 89 74 60 61 64 67 75 83 88 86 81 77 76 73 74 74 68 66 68 70 73 81 88 89 91 94 97 95 89
107 187 215 207 187 181 158 155 157 105 82 41 44 50 103 126 136 138 142 143 131 112 80 60 67 72 75 79 82 82 80 77 74 72 72 74 72 68 67 67 66 67 72 81 83 88 88 89 84
152 193 206 246 245 170 145 97 105 139 213 222 205 170 138 137 143 152 158 155 149 137 106 77 71 81 82 80 82 81 81 77 74 73 71 76 74 70 66 64 58 59 62 65 72 75 75 80 83
161 253 190 277 351 66 148 139 88 136 230 259 165 149 148 152 162 167 162 152 134 126 123 102 79 83 84 86 85 85 83 81 76 76 77 78 73 67 65 64 60 59 62 63 63 71 74 75 80
188 246 299 340 37 63 87 108 181 274 317 64 108 128 150 161 164 159 145 134 126 134 135 121 95 94 93 90 86 83 85 85 84 82 82 87 83 75 69 64 65 62 66 69 65 73 79 76 74
178 164 270 303 294 340 129 276 103 280 33 95 116 140 153 161 158 140 138 146 153 156 152 138 116 104 101 94 94 92 91 92 89 80 75 85 92 88 79 69 63 60 62 70 76 76 86 80 81
123 107 328 283 216 220 131 311 246 261 115 117 131 142 139 139 127 157 171 167 172 160 137 141 128 104 106 102 100 95 94 95 87 83 78 80 88 91 88 78 66 58 62 70 76 69 80 84 81
73 87 273 283 162 212 165 251 281 53 122 149 167 166 161 144 128 147 122 128 124 119 126 132 122 111 106 104 103 101 98 96 91 90 86 81 83 88 87 82 72 72 74 73 80 73 69 78 81
53 218 234 285 35 84 162 241 290 36 120 183 219 205 185 179 29 23 91 118 118 119 120 113 113 120 108 97 95 95 94 93 95 94 90 84 85 88 85 79 74 81 76 70 80 62 71 93 91
211 217 227 233 297 100 199 246 284 287 180 230 250 235 209 216 250 12 92 106 104 102 101 97 88 87 90 90 84 78 79 77 82 88 91 96 95 95 90 79 68 73 76 66 73 69 53 71 105
166 186 233 243 263 196 225 252 272 275 241 260 257 237 236 251 302 77 85 91 87 80 83 82 80 78 91 98 111 114 113 82 68 80 93 102 99 104 100 91 79 72 74 64 86 82 73 46 62
176 211 249 280 1 201 257 269 262 244 221 226 232 240 245 275 20 62 75 83 94 98 94 88 84 81 93 92 115 129 128 100 52 53 69 96 109 118 118 115 111 96 81 63 72 80 97 52 35
209 206 220 229 339 23 332 297 249 254 190 172 210 235 259 232 235 97 94 99 93 99 111 117 81 74 68 67 75 66 59 47 34 11 358 354 142 158 140 137 132 126 125 136 138 124 123 158 327
230 215 202 193 145 288 66 285 269 241 286 277 268 294 293 294 213 130 126 124 137 189 120 99 93 79 73 87 94 112 121 193 264 273 296 323 257 189 168 157 153 155 151 159 181 148 146 152 184
212 145 153 161 165 293 260 228 281 297 264 266 264 274 297 300 225 192 221 223 208 123 111 110 91 73 65 75 96 108 99 302 322 357 332 320 313 255 203 174 168 175 178 188 186 171 172 172 184
142 79 68 67 86 266 226 198 274 239 237 263 271 292 315 330 339 333 340 21 37 43 50 60 84 58 57 68 79 84 94 10 5 333 294 287 299 303 275 230 196 198 196 202 201 192 188 192 187
83 95 30 350 309 249 187 204 251 256 240 232 264 295 327 359 9 1 8 22 29 35 34 33 44 19 24 54 44 326 278 242 240 261 257 271 269 271 262 251 228 222 222 218 208 200 205 206 199
193 154 167 209 235 275 230 229 253 267 304 298 297 340 26 24 13 359 351 7 12 16 17 16 13 360 5 3 331 319 325 295 282 282 274 262 259 255 253 236 234 236 232 225 215 218 224 213 217
146 179 156 140 144 264 260 279 296 200 342 353 344 4 352 347 349 347 353 359 358 357 353 353 4 359 349 334 334 315 307 297 287 294 297 292 292 280 256 243 241 238 232 229 222 225 229 226 228
114 143 113 145 193 253 277 264 252 257 252 262 282 291 293 324 339 351 356 356 358 350 348 358 1 339 337 340 322 310 305 293 292 293 289 289 291 292 271 253 246 246 236 228 226 241 233 228 234
112 113 128 147 175 191 256 266 231 223 221 217 239 259 278 299 307 326 341 347 355 3 4 6 357 348 339 330 325 324 312 311 300 286 283 287 292 287 281 262 253 250 245 236 231 238 237 233 237
173 175 158 176 222 199 214 265 273 215 226 214 242 266 287 295 304 322 340 355 358 355 356 356 345 333 323 320 322 318 319 323 308 293 290 288 287 284 276 270 258 253 250 241 236 240 242 238 239
Height
1498 1499 1502 1504 1509 1519 1520 1515 1511 1510 1510 1510 1510 1511 1513 1516 1519 1523 1519 1517 1519 1521 1523 1526 1528 1529 1531 1532 1533 1534 1535 1536 1537 1538 1539 1540 1541 1541 1542 1543 1544 1544 1545 1546 1546 1547 1548 1548 1549
1498 1500 1503 1504 1513 1522 1519 1512 1510 1508 1508 1508 1509 1511 1512 1514 1515 1516 1516 1517 1519 1521 1523 1525 1528 1529 1531 1532 1533 1534 1535 1536 1537 1538 1539 1540 1541 1542 1543 1544 1544 1545 1546 1547 1548 1548 1549 1549 1550
1498 1500 1502 1506 1514 1516 1512 1508 1507 1507 1507 1508 1509 1511 1512 1514 1515 1515 1516 1517 1519 1521 1523 1525 1527 1529 1531 1532 1533 1534 1535 1537 1538 1539 1540 1541 1541 1542 1543 1544 1545 1546 1546 1547 1548 1549 1550 1551 1551
1498 1501 1503 1509 1511 1509 1507 1505 1505 1506 1507 1508 1509 1512 1513 1515 1515 1515 1516 1518 1520 1521 1523 1526 1527 1529 1531 1532 1533 1534 1536 1537 1538 1539 1540 1540 1541 1542 1543 1544 1545 1546 1547 1548 1549 1550 1551 1551 1552
1498 1500 1507 1512 1509 1507 1505 1504 1504 1505 1507 1508 1509 1511 1512 1514 1514 1515 1516 1518 1520 1521 1524 1526 1527 1529 1531 1532 1533 1534 1536 1537 1538 1539 1540 1541 1541 1542 1544 1545 1545 1546 1547 1548 1549 1550 1551 1552 1553
1498 1500 1511 1511 1508 1506 1504 1503 1504 1505 1507 1508 1509 1511 1512 1513 1514 1515 1517 1518 1520 1522 1524 1526 1527 1529 1530 1532 1533 1534 1536 1537 1538 1539 1540 1541 1542 1542 1543 1545 1546 1547 1548 1549 1550 1551 1551 1553 1554
1497 1503 1508 1507 1507 1505 1503 1502 1504 1505 1506 1507 1508 1510 1511 1513 1514 1515 1517 1519 1520 1522 1524 1525 1527 1528 1530 1531 1532 1534 1535 1536 1537 1538 1540 1541 1541 1542 1543 1544 1545 1546 1548 1549 1550 1551 1551 1552 1554
1496 1501 1505 1507 1505 1503 1501 1501 1502 1504 1505 1507 1508 1509 1510 1512 1513 1515 1517 1518 1520 1522 1523 1525 1527 1528 1529 1530 1532 1533 1534 1536 1537 1538 1539 1540 1541 1542 1543 1544 1545 1546 1547 1548 1549 1551 1551 1552 1553
1496 1504 1505 1504 1503 1501 1500 1501 1502 1504 1504 1506 1506 1508 1509 1511 1512 1514 1516 1517 1519 1521 1523 1524 1526 1527 1529 1530 1531 1532 1534 1535 1536 1537 1538 1539 1540 1541 1542 1543 1544 1546 1547 1548 1549 1550 1551 1552 1553
1495 1503 1501 1499 1498 1499 1499 1500 1502 1503 1504 1505 1506 1507 1508 1510 1511 1513 1514 1516 1517 1519 1521 1523 1525 1526 1528 1529 1530 1532 1533 1534 1535 1536 1538 1539 1540 1541 1542 1543 1544 1545 1546 1547 1548 1549 1551 1552 1553
1495 1498 1497 1497 1497 1497 1499 1500 1502 1502 1504 1504 1504 1505 1507 1509 1510 1512 1513 1515 1516 1518 1520 1522 1524 1525 1527 1528 1529 1530 1532 1533 1534 1536 1537 1538 1539 1540 1541 1542 1543 1544 1545 1546 1547 1549 1550 1551 1552
1495 1496 1496 1497 1497 1497 1499 1500 1502 1502 1503 1503 1503 1504 1505 1507 1508 1510 1512 1514 1516 1518 1519 1521 1522 1524 1525 1527 1528 1529 1530 1532 1533 1534 1536 1537 1538 1539 1540 1541 1542 1543 1544 1545 1546 1547 1548 1550 1551
1495 1496 1496 1497 1497 1498 1498 1500 1501 1501 1502 1502 1503 1503 1504 1505 1507 1509 1511 1513 1515 1516 1518 1520 1521 1523 1524 1525 1527 1528 1529 1530 1532 1533 1534 1535 1536 1537 1538 1540 1541 1542 1543 1543 1544 1546 1547 1548 1550
1494 1495 1496 1497 1497 1497 1498 1499 1501 1500 1501 1501 1501 1502 1503 1504 1506 1508 1509 1511 1513 1515 1516 1518 1520 1521 1522 1524 1525 1526 1527 1528 1530 1531 1532 1534 1535 1536 1537 1538 1539 1540 1541 1542 1543 1544 1545 1547 1548
1494 1496 1497 1496 1496 1497 1498 1500 1501 1499 1499 1499 1500 1501 1502 1503 1504 1505 1507 1509 1511 1513 1515 1516 1518 1519 1521 1522 1523 1524 1525 1527 1528 1529 1530 1532 1533 1534 1535 1536 1537 1538 1539 1540 1541 1542 1544 1545 1547
1495 1497 1499 1497 1496 1497 1501 1501 1499 1498 1498 1498 1499 1499 1500 1502 1503 1504 1506 1507 1509 1511 1513 1514 1515 1517 1518 1520 1521 1522 1523 1525 1526 1527 1528 1530 1531 1532 1534 1534 1535 1536 1537 1538 1539 1540 1542 1543 1545
1499 1501 1499 1498 1497 1497 1499 1501 1499 1498 1498 1497 1497 1498 1499 1500 1501 1502 1504 1505 1507 1508 1510 1511 1513 1514 1516 1518 1519 1520 1521 1523 1524 1525 1526 1527 1528 1530 1531 1532 1533 1534 1535 1536 1537 1538 1540 1541 1542
1500 1501 1499 1499 1498 1499 1500 1501 1498 1498 1497 1496 1496 1497 1497 1497 1498 1500 1502 1503 1504 1506 1507 1509 1511 1512 1514 1515 1516 1518 1519 1520 1521 1523 1524 1525 1526 1527 1529 1530 1531 1531 1532 1534 1535 1536 1538 1539 1540
1496 1498 1499 1499 1498 1500 1500 1499 1497 1496 1496 1495 1495 1495 1495 1496 1498 1499 1499 1501 1502 1503 1504 1506 1508 1509 1511 1512 1513 1515 1516 1517 1518 1520 1521 1522 1524 1525 1526 1527 1528 1529 1530 1531 1533 1534 1535 1537 1538
1496 1498 1499 1499 1498 1499 1500 1499 1496 1494 1494 1494 1493 1493 1494 1494 1495 1496 1497 1498 1499 1500 1502 1503 1505 1506 1508 1510 1511 1512 1513 1514 1516 1517 1518 1519 1521 1522 1523 1524 1525 1526 1527 1528 1530 1531 1532 1534 1535
1496 1498 1499 1500 1500 1500 1501 1496 1495 1493 1492 1492 1492 1492 1492 1492 1493 1493 1494 1495 1496 1498 1499 1500 1502 1504 1505 1507 1508 1510 1511 1511 1513 1514 1515 1516 1517 1519 1520 1521 1522 1523 1524 1525 1526 1528 1529 1531 1532
1494 1495 1496 1499 1503 1505 1504 1503 1492 1492 1492 1491 1491 1491 1491 1491 1492 1492 1493 1493 1494 1496 1497 1498 1500 1501 1503 1504 1505 1506 1507 1507 1509 1511 1512 1513 1514 1516 1517 1518 1519 1520 1521 1522 1523 1524 1526 1527 1529
1494 1494 1497 1499 1504 1509 1508 1508 1494 1493 1492 1490 1490 1490 1489 1490 1490 1490 1491 1492 1493 1494 1495 1496 1497 1498 1499 1501 1502 1503 1504 1505 1506 1508 1508 1510 1511 1512 1513 1514 1515 1516 1517 1518 1519 1520 1522 1523 1525
1494 1496 1499 1504 1507 1508 1506 1508 1495 1494 1490 1489 1488 1488 1488 1488 1489 1489 1490 1491 1491 1492 1493 1494 1494 1495 1496 1497 1499 1500 1501 1502 1503 1504 1505 1506 1507 1508 1510 1511 1512 1513 1514 1514 1515 1517 1518 1519 1521
1495 1500 1506 1507 1510 1505 1506 1506 1496 1490 1489 1488 1487 1487 1486 1487 1487 1487 1488 1488 1489 1489 1490 1491 1492 1492 1493 1494 1496 1497 1498 1499 1500 1501 1502 1502 1503 1504 1506 1507 1508 1509 1510 1510 1511 1512 1513 1515 1516
1497 1497 1504 1507 1507 1506 1508 1504 1494 1490 1488 1487 1487 1487 1486 1486 1486 1486 1486 1486 1487 1487 1488 1489 1489 1490 1491 1492 1493 1494 1495 1496 1497 1497 1498 1498 1499 1501 1502 1503 1504 1505 1505 1506 1507 1508 1509 1510 1511
1497 1500 1501 1509 1514 1514 1506 1504 1494 1489 1488 1487 1487 1486 1485 1485 1485 1485 1485 1485 1485 1485 1485 1486 1487 1488 1488 1489 1490 1491 1492 1493 1493 1494 1494 1495 1496 1497 1498 1498 1499 1500 1501 1501 1502 1503 1504 1505 1506
1498 1501 1506 1508 1508 1506 1503 1504 1494 1488 1487 1486 1486 1485 1485 1485 1485 1484 1484 1484 1484 1484 1484 1484 1484 1485 1486 1486 1487 1488 1488 1489 1489 1490 1491 1491 1492 1492 1493 1493 1494 1495 1496 1497 1497 1498 1499 1500 1501
1501 1504 1505 1508 1508 1507 1505 1496 1486 1485 1484 1484 1484 1484 1484 1484 1483 1483 1483 1482 1482 1482 1482 1482 1482 1482 1483 1483 1484 1484 1485 1485 1485 1486 1486 1487 1487 1488 1488 1488 1489 1490 1490 1491 1492 1493 1494 1494 1495
1499 1502 1505 1505 1508 1514 1511 1498 1483 1483 1482 1483 1483 1483 1483 1483 1482 1482 1481 1481 1480 1480 1480 1480 1480 1480 1480 1480 1480 1481 1481 1481 1481 1482 1482 1482 1482 1483 1483 1483 1484 1485 1485 1486 1486 1487 1488 1488 1489